Location: downtown San Diego
(32.7310°N, 117.1990°W)
Time: 04:51:38
(UTC-07:00)

Cosmos 2184 Rocket - Pass Details

Date: 12 July 2018
Orbit: 959 x 1002 km, 82.9° (Epoch: 22 September)

Event Time Altitude Azimuth Distance (km) Brightness Sun altitude
Rises 21:44:48 0° 352° (N) 3,672 7.8 -19.1°
Reaches altitude 10° 21:47:19 10° 351° (N) 2,716 7.1 -19.5°
Maximum altitude 21:53:32 80° 266° (W) 982 4.0 -20.4°
Enters shadow 21:57:17 25° 182° (S) 1,821 5.0 -21.0°
